Tracking 23610 objects as of 20-Sep-2021
HD Live streaming from Space Station
objects crossing your sky now

STARLINK-2483

Track STARLINK-2483 now!
10-day predictions
STARLINK-2483 is classified as:


NORAD ID: 48140
Int'l Code: 2021-027BA
Perigee: 553.9 km
Apogee: 554.8 km
Inclination: 53.1 °
Period: 95.6 minutes
Semi major axis: 6925 km
RCS: Unknown
Launch date: April 7, 2021
Source: United States (US)
Launch site: AIR FORCE EASTERN TEST RANGE (AFETR)
aabbcc
Your satellite tracking list
Your tracking list is empty




NASA's NSSDC Master Catalog

Two Line Element Set (TLE):
1 48140U 21027BA  21263.07091525 -.00001089  00000-0 -54272-4 0  9996
2 48140  53.0551 296.2273 0000647  98.5177 261.5885 15.06396981 26093
Source of the keplerian elements: AFSPC